| time (UTC) | temp F | wind direction | speed knots | gust knots | rain 1hr in | rain 24hr in | rain mn in | humidity % | barometer mb |
| 20260505171516 | 64 | 210 | 1.7 | 1.7 | 0.00 | 0.00 | 0.00 | 44 | 1015.5 |
| 20260505171014 | 63 | 289 | 1.7 | 1.7 | 0.00 | 0.00 | 0.00 | 43 | 1015.3 |
| 20260505170510 | 64 | 166 | 0.9 | 0.9 | 0.00 | 0.00 | 0.00 | 48 | 1015.4 |
| 20260505170006 | 64 | 84 | 0.9 | 1.7 | 0.00 | 0.00 | 0.00 | 52 | 1015.3 |
| 20260505165502 | 63 | 270 | 1.7 | 1.7 | 0.00 | 0.00 | 0.00 | 55 | 1015.3 |
| 20260505164957 | 63 | 254 | 2.6 | 2.6 | 0.00 | 0.00 | 0.00 | 57 | 1015.5 |
| 20260505164454 | 63 | 331 | 0.0 | 0.9 | 0.00 | 0.00 | 0.00 | 54 | 1015.3 |
| 20260505163952 | 62 | 333 | 1.7 | 1.7 | 0.00 | 0.00 | 0.00 | 56 | 1015.3 |
| 20260505163450 | 62 | 97 | 0.9 | 0.9 | 0.00 | 0.00 | 0.00 | 59 | 1015.2 |
| 20260505162950 | 62 | 341 | 2.6 | 2.6 | 0.00 | 0.00 | 0.00 | 64 | 1015.3 |
| 20260505162445 | 62 | 304 | 1.7 | 1.7 | 0.00 | 0.00 | 0.00 | 60 | 1015.4 |
| 20260505161942 | 61 | 347 | 2.6 | 2.6 | 0.00 | 0.00 | 0.00 | 57 | 1015.4 |
| 20260505161438 | 61 | 280 | 0.9 | 1.7 | 0.00 | 0.00 | 0.00 | 59 | 1015.3 |
| 20260505160936 | 61 | 340 | 1.7 | 1.7 | 0.00 | 0.00 | 0.00 | 62 | 1015.2 |
| 20260505160434 | 60 | 32 | 1.7 | 1.7 | 0.00 | 0.00 | 0.00 | 60 | 1015.3 |
| 20260505152910 | 58 | 296 | 0.9 | 0.9 | 0.00 | 0.00 | 0.00 | 69 | 1015.2 |
| 20260505152408 | 58 | 263 | 1.7 | 1.7 | 0.00 | 0.00 | 0.00 | 70 | 1015.1 |
| 20260505151907 | 58 | 301 | 0.0 | 0.9 | 0.00 | 0.00 | 0.00 | 68 | 1015.3 |
| 20260505151404 | 58 | 314 | 1.7 | 1.7 | 0.00 | 0.00 | 0.00 | 68 | 1015.2 |
| 20260505150901 | 57 | 152 | 0.0 | 0.0 | 0.00 | 0.00 | 0.00 | 68 | 1015.1 |
| 20260505150359 | 57 | 215 | 0.9 | 0.9 | 0.00 | 0.00 | 0.00 | 69 | 1015.2 |
| 20260505140328 | 47 | 122 | 0.9 | 0.9 | 0.00 | 0.00 | 0.00 | 82 | 1014.9 |
| 20260505130252 | 37 | 113 | 2.6 | 2.6 | 0.00 | 0.00 | 0.00 | 93 | 1014.3 |
| 20260505124742 | 37 | 102 | 2.6 | 2.6 | 0.00 | 0.00 | 0.00 | 91 | 1014.1 |
| 20260505124239 | 39 | 96 | 2.6 | 2.6 | 0.00 | 0.00 | 0.00 | 89 | 1014.2 |
| 20260505123734 | 39 | 93 | 1.7 | 1.7 | 0.00 | 0.00 | 0.00 | 89 | 1014.0 |
| 20260505123231 | 41 | 108 | 0.0 | 0.9 | 0.00 | 0.00 | 0.00 | 88 | 1013.9 |
| 20260505122728 | 40 | 125 | 0.9 | 0.9 | 0.00 | 0.00 | 0.00 | 91 | 1014.0 |
| 20260505122225 | 42 | 137 | 0.9 | 0.9 | 0.00 | 0.00 | 0.00 | 88 | 1014.1 |
| 20260505121722 | 43 | 135 | 0.9 | 0.9 | 0.00 | 0.00 | 0.00 | 84 | 1013.7 |
| 20260505121219 | 43 | 127 | 0.9 | 0.9 | 0.00 | 0.00 | 0.00 | 85 | 1013.9 |
| 20260505120715 | 43 | 165 | 0.9 | 1.7 | 0.00 | 0.00 | 0.00 | 86 | 1013.9 |
| 20260505120211 | 43 | 148 | 0.9 | 0.9 | 0.00 | 0.00 | 0.00 | 84 | 1013.6 |
| 20260505115704 | 44 | 170 | 1.7 | 1.7 | 0.00 | 0.00 | 0.00 | 83 | 1013.7 |
| 20260505115202 | 44 | 174 | 2.6 | 2.6 | 0.00 | 0.00 | 0.00 | 82 | 1013.7 |
| 20260505114659 | 43 | 155 | 1.7 | 1.7 | 0.00 | 0.00 | 0.00 | 86 | 1013.6 |
| 20260505114155 | 43 | 155 | 0.9 | 0.9 | 0.00 | 0.00 | 0.00 | 84 | 1013.9 |
| 20260505113652 | 42 | 151 | 1.7 | 1.7 | 0.00 | 0.00 | 0.00 | 86 | 1013.9 |
| 20260505113149 | 41 | 134 | 1.7 | 1.7 | 0.00 | 0.00 | 0.00 | 89 | 1013.6 |
| 20260505112645 | 39 | 150 | 1.7 | 1.7 | 0.00 | 0.00 | 0.00 | 89 | 1013.9 |
| 20260505112143 | 36 | 123 | 2.6 | 2.6 | 0.00 | 0.00 | 0.00 | 94 | 1014.0 |
| 20260505111642 | 36 | 109 | 2.6 | 2.6 | 0.00 | 0.00 | 0.00 | 93 | 1013.7 |
| 20260505111139 | 37 | 89 | 1.7 | 1.7 | 0.00 | 0.00 | 0.00 | 93 | 1013.9 |
| 20260505110635 | 39 | 103 | 2.6 | 2.6 | 0.00 | 0.00 | 0.00 | 88 | 1013.9 |
| 20260505110132 | 42 | 116 | 1.7 | 1.7 | 0.00 | 0.00 | 0.00 | 84 | 1013.9 |
| 20260505102108 | 45 | 152 | 0.9 | 0.9 | 0.00 | 0.00 | 0.00 | 80 | 1013.5 |
| 20260505101606 | 45 | 154 | 0.9 | 0.9 | 0.00 | 0.00 | 0.00 | 80 | 1013.4 |
| 20260505101102 | 46 | 157 | 0.9 | 1.7 | 0.00 | 0.00 | 0.00 | 79 | 1013.5 |
| 20260505100559 | 46 | 155 | 0.9 | 1.7 | 0.00 | 0.00 | 0.00 | 78 | 1013.6 |
| 20260505100056 | 45 | 165 | 1.7 | 1.7 | 0.00 | 0.00 | 0.00 | 78 | 1013.4 |
| 20260505095552 | 45 | 166 | 0.9 | 1.7 | 0.00 | 0.00 | 0.00 | 79 | 1013.4 |
| 20260505095049 | 46 | 146 | 1.7 | 1.7 | 0.00 | 0.00 | 0.00 | 76 | 1013.3 |
| 20260505094545 | 44 | 135 | 0.9 | 1.7 | 0.00 | 0.00 | 0.00 | 79 | 1013.2 |
| 20260505094041 | 46 | 132 | 0.0 | 0.0 | 0.00 | 0.00 | 0.00 | 76 | 1013.4 |
| 20260505093538 | 44 | 132 | 1.7 | 1.7 | 0.00 | 0.00 | 0.00 | 79 | 1013.4 |
| 20260505093036 | 40 | 126 | 2.6 | 2.6 | 0.00 | 0.00 | 0.00 | 86 | 1013.5 |
| 20260505092533 | 41 | 109 | 2.6 | 2.6 | 0.00 | 0.00 | 0.00 | 87 | 1013.2 |
| 20260505092031 | 40 | 144 | 2.6 | 2.6 | 0.00 | 0.00 | 0.00 | 85 | 1013.3 |
| 20260505091527 | 42 | 111 | 3.5 | 4.3 | 0.00 | 0.00 | 0.00 | 85 | 1013.4 |
| 20260505091026 | 42 | 83 | 1.7 | 1.7 | 0.00 | 0.00 | 0.00 | 85 | 1013.2 |
| 20260505090524 | 44 | 92 | 1.7 | 1.7 | 0.00 | 0.00 | 0.00 | 81 | 1013.3 |
| 20260505090021 | 43 | 108 | 2.6 | 2.6 | 0.00 | 0.00 | 0.00 | 84 | 1013.3 |
| 20260505085519 | 45 | 103 | 2.6 | 2.6 | 0.00 | 0.00 | 0.00 | 80 | 1013.2 |
| 20260505085017 | 46 | 95 | 0.0 | 0.0 | 0.00 | 0.00 | 0.00 | 77 | 1013.1 |
| 20260505084515 | 45 | 78 | 0.0 | 0.9 | 0.00 | 0.00 | 0.00 | 77 | 1013.5 |
| 20260505084012 | 45 | 70 | 0.9 | 0.9 | 0.00 | 0.00 | 0.00 | 79 | 1013.2 |
| 20260505083509 | 45 | 125 | 0.9 | 0.9 | 0.00 | 0.00 | 0.00 | 79 | 1013.2 |
| 20260505083006 | 46 | 123 | 0.0 | 0.0 | 0.00 | 0.00 | 0.00 | 79 | 1013.5 |
| 20260505082502 | 45 | 117 | 1.7 | 1.7 | 0.00 | 0.00 | 0.00 | 79 | 1013.2 |
| 20260505081959 | 47 | 96 | 0.9 | 0.9 | 0.00 | 0.00 | 0.00 | 77 | 1013.4 |
| 20260505081455 | 48 | 131 | 0.9 | 0.9 | 0.00 | 0.00 | 0.00 | 73 | 1013.2 |
| 20260505080952 | 46 | 117 | 0.0 | 0.0 | 0.00 | 0.00 | 0.00 | 77 | 1013.2 |
| 20260505080448 | 45 | 112 | 0.0 | 0.0 | 0.00 | 0.00 | 0.00 | 79 | 1013.2 |
| 20260505075943 | 46 | 117 | 1.7 | 1.7 | 0.00 | 0.00 | 0.00 | 78 | 1013.2 |
| 20260505075440 | 48 | 131 | 1.7 | 1.7 | 0.00 | 0.00 | 0.00 | 75 | 1013.1 |
| 20260505074938 | 43 | 127 | 2.6 | 2.6 | 0.00 | 0.00 | 0.00 | 82 | 1013.2 |
| 20260505074436 | 46 | 112 | 1.7 | 1.7 | 0.00 | 0.00 | 0.00 | 80 | 1013.3 |
| 20260505073932 | 49 | 146 | 0.9 | 1.7 | 0.00 | 0.00 | 0.00 | 72 | 1013.2 |
| 20260505073430 | 47 | 129 | 1.7 | 1.7 | 0.00 | 0.00 | 0.00 | 77 | 1013.1 |
| 20260505072927 | 42 | 123 | 3.5 | 4.3 | 0.00 | 0.00 | 0.00 | 86 | 1013.1 |
| 20260505072423 | 45 | 129 | 2.6 | 2.6 | 0.00 | 0.00 | 0.00 | 81 | 1013.1 |
| 20260505071919 | 45 | 126 | 2.6 | 2.6 | 0.00 | 0.00 | 0.00 | 81 | 1013.1 |
| 20260505071415 | 44 | 87 | 0.9 | 0.9 | 0.00 | 0.00 | 0.00 | 81 | 1013.1 |
| 20260505070914 | 47 | 102 | 0.9 | 0.9 | 0.00 | 0.00 | 0.00 | 76 | 1013.1 |
| 20260505070410 | 49 | 60 | 1.7 | 1.7 | 0.00 | 0.00 | 0.00 | 74 | 1012.8 |
| 20260505065905 | 49 | 109 | 0.0 | 0.9 | 0.00 | 0.00 | 0.00 | 72 | 1012.9 |
| 20260505065402 | 48 | 78 | 0.0 | 0.9 | 0.00 | 0.00 | 0.00 | 74 | 1012.9 |
| 20260505064859 | 48 | 77 | 1.7 | 1.7 | 0.00 | 0.00 | 0.00 | 76 | 1012.9 |
| 20260505064356 | 49 | 26 | 1.7 | 1.7 | 0.00 | 0.00 | 0.00 | 73 | 1012.8 |
| 20260505063855 | 51 | 150 | 0.0 | 0.9 | 0.00 | 0.00 | 0.00 | 69 | 1012.8 |
| 20260505063355 | 50 | 168 | 1.7 | 1.7 | 0.00 | 0.00 | 0.00 | 71 | 1012.8 |
| 20260505062852 | 52 | 163 | 1.7 | 1.7 | 0.00 | 0.00 | 0.00 | 70 | 1012.8 |
| 20260505062349 | 53 | 157 | 1.7 | 1.7 | 0.00 | 0.00 | 0.00 | 67 | 1012.9 |
| 20260505061846 | 54 | 192 | 0.9 | 1.7 | 0.00 | 0.00 | 0.00 | 63 | 1013.1 |
| 20260505061344 | 53 | 161 | 0.9 | 0.9 | 0.00 | 0.00 | 0.00 | 64 | 1012.8 |
| 20260505060842 | 51 | 176 | 0.9 | 0.9 | 0.00 | 0.00 | 0.00 | 66 | 1012.7 |
| 20260505060338 | 51 | 161 | 0.9 | 0.9 | 0.00 | 0.00 | 0.00 | 68 | 1012.7 |
| 20260505055834 | 52 | 172 | 0.9 | 1.7 | 0.00 | 0.00 | 0.00 | 68 | 1012.9 |
| 20260505055330 | 52 | 168 | 0.9 | 1.7 | 0.00 | 0.00 | 0.00 | 68 | 1012.7 |
| 20260505054828 | 52 | 148 | 0.0 | 0.0 | 0.00 | 0.00 | 0.00 | 67 | 1012.7 |
| 20260505054325 | 53 | 147 | 0.9 | 1.7 | 0.00 | 0.00 | 0.00 | 66 | 1012.6 |
| 20260505053823 | 51 | 163 | 1.7 | 1.7 | 0.00 | 0.00 | 0.00 | 69 | 1012.8 |
| 20260505053320 | 51 | 157 | 0.9 | 1.7 | 0.00 | 0.00 | 0.00 | 69 | 1012.7 |
| 20260505052817 | 52 | 145 | 0.0 | 0.9 | 0.00 | 0.00 | 0.00 | 68 | 1012.7 |
| 20260505052314 | 52 | 166 | 3.5 | 4.3 | 0.00 | 0.00 | 0.00 | 68 | 1012.7 |
| 20260505051810 | 51 | 174 | 2.6 | 2.6 | 0.00 | 0.00 | 0.00 | 69 | 1012.8 |
| 20260505051308 | 52 | 181 | 4.3 | 5.2 | 0.00 | 0.00 | 0.00 | 68 | 1012.7 |
| 20260505050806 | 52 | 156 | 2.6 | 2.6 | 0.00 | 0.00 | 0.00 | 69 | 1012.8 |
| 20260505050305 | 52 | 153 | 2.6 | 2.6 | 0.00 | 0.00 | 0.00 | 68 | 1012.7 |
| 20260505041734 | 57 | 150 | 0.9 | 0.9 | 0.00 | 0.00 | 0.00 | 59 | 1012.8 |
| 20260505041231 | 55 | 149 | 1.7 | 1.7 | 0.00 | 0.00 | 0.00 | 58 | 1013.1 |
| 20260505040729 | 56 | 103 | 1.7 | 1.7 | 0.00 | 0.00 | 0.00 | 62 | 1013.1 |
| 20260505040226 | 58 | 129 | 0.0 | 0.0 | 0.00 | 0.00 | 0.00 | 60 | 1012.9 |
| 20260505035723 | 58 | 108 | 0.0 | 0.0 | 0.00 | 0.00 | 0.00 | 57 | 1012.8 |
| 20260505035219 | 59 | 160 | 0.9 | 0.9 | 0.00 | 0.00 | 0.00 | 57 | 1012.7 |
| 20260505034715 | 57 | 166 | 0.9 | 0.9 | 0.00 | 0.00 | 0.00 | 59 | 1012.8 |
| 20260505034212 | 58 | 146 | 0.9 | 0.9 | 0.00 | 0.00 | 0.00 | 59 | 1012.5 |
| 20260505033708 | 60 | 176 | 1.7 | 1.7 | 0.00 | 0.00 | 0.00 | 56 | 1012.7 |
| 20260505033207 | 61 | 142 | 0.0 | 0.0 | 0.00 | 0.00 | 0.00 | 54 | 1012.6 |
| 20260505032705 | 60 | 222 | 1.7 | 1.7 | 0.00 | 0.00 | 0.00 | 53 | 1012.4 |
| 20260505032200 | 60 | 148 | 0.9 | 0.9 | 0.00 | 0.00 | 0.00 | 55 | 1012.2 |
| 20260505031658 | 61 | 163 | 0.0 | 0.9 | 0.00 | 0.00 | 0.00 | 54 | 1012.3 |
| 20260505031154 | 61 | 174 | 0.9 | 0.9 | 0.00 | 0.00 | 0.00 | 52 | 1011.9 |
| 20260505030651 | 60 | 264 | 2.6 | 2.6 | 0.00 | 0.00 | 0.00 | 54 | 1012.2 |
| 20260505030147 | 61 | 182 | 0.9 | 0.9 | 0.00 | 0.00 | 0.00 | 53 | 1011.9 |
| 20260505025643 | 61 | 208 | 1.7 | 1.7 | 0.00 | 0.00 | 0.00 | 55 | 1011.7 |
| 20260505025142 | 61 | 219 | 1.7 | 1.7 | 0.00 | 0.00 | 0.00 | 55 | 1011.8 |
| 20260505024639 | 61 | 214 | 0.9 | 1.7 | 0.00 | 0.00 | 0.00 | 56 | 1011.7 |
| 20260505024136 | 62 | 167 | 1.7 | 1.7 | 0.00 | 0.00 | 0.00 | 55 | 1011.7 |
| 20260505023633 | 62 | 191 | 1.7 | 1.7 | 0.00 | 0.00 | 0.00 | 57 | 1011.6 |
| 20260505023131 | 64 | 170 | 1.7 | 1.7 | 0.00 | 0.00 | 0.00 | 54 | 1011.6 |
| 20260505022628 | 64 | 156 | 0.9 | 0.9 | 0.00 | 0.00 | 0.00 | 53 | 1011.3 |
| 20260505022125 | 64 | 3 | 0.9 | 0.9 | 0.00 | 0.00 | 0.00 | 53 | 1011.4 |
| 20260505021621 | 64 | 359 | 1.7 | 2.6 | 0.00 | 0.00 | 0.00 | 53 | 1011.3 |
| 20260505021118 | 64 | 351 | 1.7 | 1.7 | 0.00 | 0.00 | 0.00 | 53 | 1011.4 |
| 20260505020614 | 64 | 357 | 2.6 | 4.3 | 0.00 | 0.00 | 0.00 | 52 | 1011.6 |
| 20260505020110 | 65 | 344 | 2.6 | 2.6 | 0.00 | 0.00 | 0.00 | 51 | 1011.3 |
| 20260505015607 | 66 | 7 | 4.3 | 7.0 | 0.00 | 0.00 | 0.00 | 47 | 1011.3 |
| 20260505015104 | 67 | 1 | 2.6 | 2.6 | 0.00 | 0.00 | 0.00 | 49 | 1011.1 |
| 20260505014601 | 67 | 7 | 5.2 | 7.0 | 0.00 | 0.00 | 0.00 | 47 | 1011.0 |
| 20260505014058 | 68 | 44 | 7.0 | 7.8 | 0.00 | 0.00 | 0.00 | 45 | 1011.0 |
| 20260505013555 | 68 | 4 | 5.2 | 8.7 | 0.00 | 0.00 | 0.00 | 45 | 1011.3 |
| 20260505013052 | 68 | 316 | 4.3 | 6.1 | 0.00 | 0.00 | 0.00 | 46 | 1011.4 |
| 20260505012550 | 67 | 352 | 7.8 | 8.7 | 0.00 | 0.00 | 0.00 | 43 | 1011.3 |
| 20260505012047 | 66 | 348 | 4.3 | 6.1 | 0.00 | 0.00 | 0.00 | 47 | 1011.4 |
| 20260505011542 | 67 | 16 | 3.5 | 4.3 | 0.00 | 0.00 | 0.00 | 47 | 1011.1 |
| 20260505011040 | 67 | 343 | 7.8 | 8.7 | 0.00 | 0.00 | 0.00 | 46 | 1011.4 |
| 20260505010535 | 67 | 21 | 6.1 | 7.0 | 0.00 | 0.00 | 0.00 | 46 | 1011.5 |
| 20260505010032 | 68 | 350 | 8.7 | 11.3 | 0.00 | 0.00 | 0.00 | 42 | 1011.3 |
| 20260505005528 | 68 | 15 | 4.3 | 6.1 | 0.00 | 0.00 | 0.00 | 43 | 1011.3 |
| 20260505005026 | 67 | 306 | 6.1 | 7.0 | 0.00 | 0.00 | 0.00 | 44 | 1011.3 |
| 20260505004523 | 66 | 345 | 5.2 | 7.8 | 0.00 | 0.00 | 0.00 | 44 | 1011.1 |
| 20260505004019 | 67 | 343 | 5.2 | 7.0 | 0.00 | 0.00 | 0.00 | 44 | 1011.3 |
| 20260505003517 | 66 | 19 | 7.0 | 7.8 | 0.00 | 0.00 | 0.00 | 39 | 1011.3 |
| 20260505003014 | 66 | 40 | 7.0 | 8.7 | 0.00 | 0.00 | 0.00 | 44 | 1011.1 |
| 20260505002509 | 66 | 331 | 4.3 | 5.2 | 0.00 | 0.00 | 0.00 | 47 | 1011.4 |
| 20260505002008 | 67 | 343 | 5.2 | 7.0 | 0.00 | 0.00 | 0.00 | 48 | 1011.4 |
| 20260505001505 | 67 | 354 | 6.1 | 9.6 | 0.00 | 0.00 | 0.00 | 46 | 1011.0 |
| 20260505001002 | 67 | 10 | 7.0 | 8.7 | 0.00 | 0.00 | 0.00 | 45 | 1011.1 |
| 20260505000500 | 68 | 8 | 9.6 | 11.3 | 0.00 | 0.00 | 0.00 | 42 | 1011.3 |
| 20260504235956 | 69 | 350 | 7.8 | 11.3 | 0.00 | 0.00 | 0.00 | 42 | 1011.4 |
| 20260504235454 | 68 | 28 | 7.0 | 8.7 | 0.00 | 0.00 | 0.00 | 43 | 1010.9 |
| 20260504234950 | 69 | 8 | 7.0 | 7.8 | 0.00 | 0.00 | 0.00 | 42 | 1011.1 |
| 20260504234447 | 69 | 354 | 6.1 | 7.8 | 0.00 | 0.00 | 0.00 | 44 | 1011.0 |
| 20260504233944 | 69 | 5 | 5.2 | 7.0 | 0.00 | 0.00 | 0.00 | 43 | 1011.0 |
| 20260504233439 | 70 | 353 | 5.2 | 7.0 | 0.00 | 0.00 | 0.00 | 43 | 1010.9 |
| 20260504232937 | 71 | 347 | 3.5 | 4.3 | 0.00 | 0.00 | 0.00 | 41 | 1010.9 |
| 20260504232434 | 73 | 41 | 6.1 | 7.0 | 0.00 | 0.00 | 0.00 | 38 | 1010.8 |
| 20260504231931 | 73 | 278 | 7.0 | 7.8 | 0.00 | 0.00 | 0.00 | 36 | 1010.9 |
| 20260504231427 | 73 | 279 | 3.5 | 5.2 | 0.00 | 0.00 | 0.00 | 39 | 1011.1 |
| 20260504230923 | 73 | 328 | 3.5 | 4.3 | 0.00 | 0.00 | 0.00 | 34 | 1010.7 |
| 20260504230420 | 73 | 281 | 6.1 | 7.0 | 0.00 | 0.00 | 0.00 | 37 | 1011.0 |
| 20260504225919 | 73 | 232 | 11.3 | 17.4 | 0.00 | 0.00 | 0.00 | 39 | 1011.0 |
| 20260504225416 | 73 | 323 | 5.2 | 6.1 | 0.00 | 0.00 | 0.00 | 36 | 1011.0 |
| 20260504224913 | 72 | 260 | 4.3 | 6.1 | 0.00 | 0.00 | 0.00 | 38 | 1010.9 |
| 20260504224409 | 73 | 304 | 6.1 | 7.0 | 0.00 | 0.00 | 0.00 | 36 | 1011.1 |
| 20260504223907 | 72 | 298 | 5.2 | 6.1 | 0.00 | 0.00 | 0.00 | 41 | 1011.1 |
| 20260504223402 | 71 | 288 | 7.8 | 8.7 | 0.00 | 0.00 | 0.00 | 41 | 1011.3 |
| 20260504222858 | 72 | 304 | 4.3 | 5.2 | 0.00 | 0.00 | 0.00 | 39 | 1011.3 |
| 20260504222355 | 73 | 280 | 6.1 | 6.1 | 0.00 | 0.00 | 0.00 | 41 | 1011.3 |
| 20260504221854 | 73 | 295 | 5.2 | 7.0 | 0.00 | 0.00 | 0.00 | 39 | 1011.3 |
| 20260504221350 | 72 | 301 | 7.8 | 9.6 | 0.00 | 0.00 | 0.00 | 38 | 1011.5 |
| 20260504220848 | 72 | 299 | 3.5 | 4.3 | 0.00 | 0.00 | 0.00 | 37 | 1011.4 |
| 20260504220344 | 72 | 266 | 7.0 | 7.8 | 0.00 | 0.00 | 0.00 | 40 | 1011.5 |
| 20260504215841 | 72 | 258 | 10.4 | 12.2 | 0.00 | 0.00 | 0.00 | 40 | 1011.8 |
| 20260504215337 | 73 | 219 | 9.6 | 11.3 | 0.00 | 0.00 | 0.00 | 38 | 1011.6 |
| 20260504214834 | 72 | 243 | 4.3 | 5.2 | 0.00 | 0.00 | 0.00 | 39 | 1011.7 |
| 20260504214331 | 72 | 279 | 7.8 | 9.6 | 0.00 | 0.00 | 0.00 | 38 | 1011.9 |
| 20260504213827 | 71 | 255 | 5.2 | 6.1 | 0.00 | 0.00 | 0.00 | 43 | 1011.8 |
| 20260504213323 | 72 | 293 | 8.7 | 11.3 | 0.00 | 0.00 | 0.00 | 39 | 1011.9 |
| 20260504212821 | 72 | 253 | 7.8 | 9.6 | 0.00 | 0.00 | 0.00 | 39 | 1011.8 |
| 20260504212317 | 71 | 270 | 6.1 | 7.0 | 0.00 | 0.00 | 0.00 | 42 | 1011.9 |
| 20260504211815 | 72 | 230 | 4.3 | 5.2 | 0.00 | 0.00 | 0.00 | 41 | 1012.0 |
| 20260504211311 | 72 | 307 | 5.2 | 7.0 | 0.00 | 0.00 | 0.00 | 38 | 1011.9 |
| 20260504210808 | 71 | 246 | 2.6 | 2.6 | 0.00 | 0.00 | 0.00 | 36 | 1011.9 |
| 20260504210305 | 71 | 287 | 4.3 | 5.2 | 0.00 | 0.00 | 0.00 | 40 | 1011.8 |
| 20260504205803 | 70 | 238 | 1.7 | 1.7 | 0.00 | 0.00 | 0.00 | 38 | 1012.0 |
| 20260504205300 | 71 | 277 | 8.7 | 11.3 | 0.00 | 0.00 | 0.00 | 40 | 1012.3 |
| 20260504204758 | 71 | 282 | 6.1 | 7.8 | 0.00 | 0.00 | 0.00 | 41 | 1012.0 |
| 20260504204256 | 71 | 296 | 2.6 | 2.6 | 0.00 | 0.00 | 0.00 | 37 | 1012.0 |
| 20260504203755 | 71 | 288 | 3.5 | 5.2 | 0.00 | 0.00 | 0.00 | 35 | 1012.0 |
| 20260504203252 | 71 | 254 | 4.3 | 6.1 | 0.00 | 0.00 | 0.00 | 35 | 1012.2 |
| 20260504202752 | 71 | 308 | 2.6 | 4.3 | 0.00 | 0.00 | 0.00 | 34 | 1012.3 |
| 20260504202250 | 71 | 275 | 5.2 | 6.1 | 0.00 | 0.00 | 0.00 | 42 | 1012.2 |
| 20260504201747 | 70 | 232 | 9.6 | 11.3 | 0.00 | 0.00 | 0.00 | 36 | 1012.4 |
| 20260504201244 | 70 | 245 | 3.5 | 4.3 | 0.00 | 0.00 | 0.00 | 41 | 1012.3 |
| 20260504200742 | 70 | 266 | 4.3 | 5.2 | 0.00 | 0.00 | 0.00 | 36 | 1012.5 |
| 20260504200237 | 70 | 281 | 6.1 | 7.8 | 0.00 | 0.00 | 0.00 | 36 | 1012.6 |
| 20260504195734 | 71 | 239 | 7.8 | 8.7 | 0.00 | 0.00 | 0.00 | 34 | 1012.2 |
| 20260504195230 | 70 | 286 | 9.6 | 12.2 | 0.00 | 0.00 | 0.00 | 36 | 1012.3 |
| 20260504194727 | 70 | 280 | 5.2 | 7.0 | 0.00 | 0.00 | 0.00 | 32 | 1012.3 |
| 20260504194223 | 70 | 230 | 4.3 | 5.2 | 0.00 | 0.00 | 0.00 | 33 | 1012.4 |
| 20260504193720 | 69 | 229 | 4.3 | 5.2 | 0.00 | 0.00 | 0.00 | 38 | 1012.6 |
| 20260504193218 | 70 | 284 | 7.8 | 8.7 | 0.00 | 0.00 | 0.00 | 35 | 1012.6 |
| 20260504192716 | 70 | 296 | 5.2 | 6.1 | 0.00 | 0.00 | 0.00 | 36 | 1012.7 |
| 20260504192213 | 69 | 289 | 7.8 | 8.7 | 0.00 | 0.00 | 0.00 | 40 | 1012.6 |
| 20260504191712 | 69 | 235 | 6.1 | 7.8 | 0.00 | 0.00 | 0.00 | 41 | 1012.5 |
| 20260504191208 | 69 | 276 | 6.1 | 7.0 | 0.00 | 0.00 | 0.00 | 39 | 1012.6 |
| 20260504190703 | 70 | 272 | 4.3 | 5.2 | 0.00 | 0.00 | 0.00 | 43 | 1012.7 |
| 20260504190200 | 69 | 229 | 7.8 | 8.7 | 0.00 | 0.00 | 0.00 | 41 | 1012.8 |
| 20260504185657 | 69 | 256 | 6.1 | 7.0 | 0.00 | 0.00 | 0.00 | 43 | 1012.8 |
| 20260504185153 | 69 | 261 | 5.2 | 6.1 | 0.00 | 0.00 | 0.00 | 41 | 1012.9 |
| 20260504184649 | 69 | 289 | 3.5 | 4.3 | 0.00 | 0.00 | 0.00 | 40 | 1012.9 |
| 20260504184144 | 68 | 248 | 4.3 | 5.2 | 0.00 | 0.00 | 0.00 | 43 | 1012.8 |
| 20260504183642 | 69 | 286 | 5.2 | 6.1 | 0.00 | 0.00 | 0.00 | 44 | 1012.9 |
| 20260504183139 | 69 | 239 | 3.5 | 4.3 | 0.00 | 0.00 | 0.00 | 48 | 1013.2 |
| 20260504182637 | 69 | 295 | 3.5 | 5.2 | 0.00 | 0.00 | 0.00 | 40 | 1012.9 |
| 20260504182134 | 69 | 297 | 7.0 | 7.0 | 0.00 | 0.00 | 0.00 | 41 | 1013.1 |
| 20260504181631 | 68 | 106 | 1.7 | 1.7 | 0.00 | 0.00 | 0.00 | 40 | 1013.2 |
| 20260504181129 | 68 | 299 | 2.6 | 4.3 | 0.00 | 0.00 | 0.00 | 42 | 1012.7 |
| 20260504180628 | 68 | 261 | 1.7 | 1.7 | 0.00 | 0.00 | 0.00 | 41 | 1013.1 |
| 20260504180126 | 69 | 10 | 1.7 | 2.6 | 0.00 | 0.00 | 0.00 | 41 | 1013.1 |
| 20260504175623 | 68 | 356 | 0.9 | 0.9 | 0.00 | 0.00 | 0.00 | 40 | 1013.2 |
| 20260504175120 | 68 | 275 | 4.3 | 5.2 | 0.00 | 0.00 | 0.00 | 41 | 1013.1 |
| 20260504174618 | 67 | 335 | 1.7 | 2.6 | 0.00 | 0.00 | 0.00 | 42 | 1013.1 |
| 20260504174114 | 67 | 236 | 3.5 | 4.3 | 0.00 | 0.00 | 0.00 | 48 | 1013.2 |
| 20260504173611 | 66 | 38 | 1.7 | 1.7 | 0.00 | 0.00 | 0.00 | 45 | 1012.9 |
| 20260504173109 | 66 | 267 | 4.3 | 5.2 | 0.00 | 0.00 | 0.00 | 42 | 1013.3 |
| 20260504172605 | 66 | 208 | 1.7 | 1.7 | 0.00 | 0.00 | 0.00 | 41 | 1013.1 |
| 20260504172102 | 67 | 269 | 3.5 | 4.3 | 0.00 | 0.00 | 0.00 | 42 | 1013.2 |